Precipitable_Water
0.31 0.22 0.20 0.18 0.18 0.19 0.20 0.20 0.19 0.18 0.18 0.17 0.17 0.16 0.15 0.15 0.16 0.18 0.19 0.22 0.25 0.22 0.20 0.19 0.18 0.18 0.18 0.18 0.18 0.20 0.22 0.21 0.20 0.20 0.20 0.21 0.21 0.20 0.19 0.20 0.21 0.21 0.21 0.23 0.24 0.25 0.26 0.28 0.30 0.32 0.33 0.32 0.32 0.32 0.33 0.34 0.35 0.34 0.33 0.32 0.31 0.32 0.34 0.36 0.35 0.35 0.35 0.35 0.36 0.38 0.38 0.37 0.38 0.38 0.39 0.39 0.39 0.38 0.38 0.38 0.37 0.36 0.36 0.37 0.37 0.37
0.32 0.23 0.23 0.26 0.25 0.23 0.23 0.24 0.23 0.21 0.20 0.18 0.17 0.16 0.15 0.17 0.15 0.17 0.19 0.22 0.24 0.21 0.18 0.18 0.17 0.17 0.18 0.19 0.20 0.22 0.22 0.20 0.19 0.20 0.20 0.20 0.20 0.19 0.19 0.20 0.22 0.22 0.23 0.24 0.24 0.25 0.27 0.28 0.30 0.32 0.33 0.34 0.31 0.32 0.33 0.33 0.35 0.34 0.33 0.32 0.33 0.33 0.34 0.35 0.36 0.36 0.36 0.37 0.37 0.37 0.37 0.38 0.38 0.39 0.38 0.38 0.38 0.37 0.38 0.38 0.37 0.36 0.37 0.37 0.37 0.37
0.26 0.23 0.27 0.31 0.31 0.29 0.26 0.24 0.23 0.22 0.20 0.20 0.18 0.17 0.16 0.17 0.18 0.19 0.20 0.20 0.20 0.19 0.16 0.18 0.17 0.17 0.19 0.19 0.21 0.21 0.21 0.21 0.22 0.21 0.21 0.20 0.19 0.19 0.19 0.21 0.22 0.22 0.22 0.23 0.23 0.25 0.26 0.28 0.29 0.31 0.32 0.33 0.33 0.32 0.34 0.35 0.36 0.36 0.34 0.34 0.34 0.33 0.34 0.35 0.37 0.37 0.37 0.38 0.38 0.38 0.39 0.39 0.39 0.40 0.39 0.38 0.37 0.38 0.37 0.37 0.37 0.37 0.37 0.37 0.37 0.37
0.22 0.26 0.31 0.34 0.33 0.30 0.28 0.27 0.25 0.23 0.22 0.20 0.19 0.17 0.15 0.16 0.16 0.13 0.16 0.18 0.19 0.18 0.17 0.18 0.17 0.17 0.20 0.21 0.21 0.21 0.22 0.22 0.22 0.22 0.22 0.21 0.20 0.19 0.19 0.21 0.22 0.22 0.22 0.22 0.22 0.24 0.26 0.28 0.30 0.31 0.32 0.33 0.33 0.35 0.36 0.36 0.35 0.36 0.36 0.35 0.35 0.35 0.36 0.36 0.37 0.38 0.38 0.38 0.39 0.40 0.40 0.40 0.38 0.37 0.38 0.37 0.38 0.38 0.38 0.38 0.39 0.39 0.39 0.38 0.37 0.37
0.22 0.27 0.32 0.34 0.34 0.32 0.28 0.29 0.27 0.25 0.21 0.20 0.19 0.18 0.17 0.17 0.17 0.16 0.15 0.18 0.20 0.21 0.21 0.19 0.17 0.17 0.19 0.18 0.18 0.20 0.22 0.22 0.21 0.22 0.22 0.22 0.22 0.21 0.22 0.24 0.25 0.23 0.22 0.23 0.24 0.26 0.27 0.29 0.30 0.30 0.32 0.34 0.34 0.36 0.36 0.35 0.35 0.35 0.36 0.36 0.36 0.36 0.36 0.37 0.38 0.38 0.38 0.39 0.39 0.39 0.39 0.38 0.37 0.37 0.36 0.36 0.36 0.38 0.38 0.39 0.39 0.38 0.38 0.38 0.37 0.37
0.26 0.31 0.35 0.32 0.31 0.31 0.30 0.27 0.28 0.27 0.23 0.21 0.22 0.21 0.19 0.19 0.18 0.18 0.19 0.19 0.17 0.17 0.20 0.19 0.14 0.11 0.16 0.17 0.17 0.18 0.19 0.19 0.20 0.21 0.21 0.21 0.20 0.20 0.21 0.23 0.24 0.24 0.25 0.24 0.25 0.26 0.28 0.31 0.32 0.33 0.34 0.34 0.35 0.35 0.35 0.35 0.36 0.36 0.36 0.36 0.37 0.37 0.37 0.37 0.37 0.38 0.39 0.39 0.37 0.36 0.34 0.33 0.32 0.32 0.33 0.34 0.36 0.38 0.39 0.38 0.39 0.38 0.38 0.38 0.36 0.36
0.27 0.32 0.32 0.30 0.30 0.30 0.30 0.28 0.30 0.30 0.25 0.21 0.21 0.26 0.24 0.22 0.21 0.20 0.19 0.20 0.15 0.13 0.19 0.23 0.14 0.11 0.16 0.16 0.18 0.19 0.19 0.19 0.20 0.21 0.20 0.20 0.19 0.21 0.22 0.23 0.23 0.23 0.24 0.26 0.28 0.30 0.31 0.32 0.33 0.33 0.33 0.33 0.32 0.32 0.33 0.34 0.35 0.36 0.36 0.36 0.36 0.36 0.37 0.38 0.38 0.39 0.38 0.36 0.35 0.34 0.33 0.33 0.33 0.33 0.35 0.38 0.38 0.38 0.39 0.39 0.38 0.37 0.38 0.37 0.36 0.35
0.29 0.29 0.30 0.31 0.30 0.29 0.28 0.27 0.31 0.31 0.26 0.22 0.29 0.28 0.26 0.24 0.23 0.22 0.22 0.22 0.19 0.24 0.25 0.26 0.23 0.17 0.13 0.15 0.19 0.20 0.19 0.19 0.19 0.19 0.20 0.19 0.20 0.23 0.24 0.24 0.23 0.24 0.25 0.26 0.28 0.29 0.31 0.31 0.31 0.31 0.32 0.33 0.33 0.33 0.34 0.33 0.34 0.35 0.35 0.36 0.36 0.37 0.37 0.37 0.38 0.37 0.37 0.35 0.35 0.34 0.34 0.34 0.35 0.35 0.37 0.38 0.38 0.39 0.38 0.38 0.37 0.37 0.37 0.37 0.36 0.35
0.30 0.28 0.29 0.29 0.29 0.28 0.28 0.31 0.32 0.33 0.28 0.26 0.31 0.31 0.28 0.27 0.26 0.26 0.25 0.23 0.24 0.22 0.17 0.22 0.25 0.19 0.14 0.16 0.19 0.20 0.18 0.18 0.18 0.19 0.19 0.20 0.23 0.25 0.25 0.25 0.25 0.26 0.27 0.28 0.28 0.29 0.29 0.30 0.31 0.31 0.32 0.33 0.33 0.32 0.32 0.32 0.34 0.35 0.36 0.37 0.37 0.37 0.37 0.37 0.37 0.37 0.36 0.36 0.36 0.36 0.36 0.35 0.35 0.36 0.37 0.39 0.39 0.38 0.39 0.37 0.37 0.36 0.36 0.36 0.36 0.35
0.31 0.32 0.32 0.31 0.30 0.28 0.32 0.35 0.36 0.35 0.30 0.32 0.35 0.35 0.33 0.32 0.30 0.28 0.26 0.24 0.24 0.22 0.16 0.20 0.23 0.18 0.14 0.15 0.17 0.20 0.18 0.17 0.18 0.18 0.19 0.23 0.25 0.26 0.27 0.28 0.28 0.28 0.29 0.30 0.31 0.31 0.31 0.31 0.31 0.31 0.32 0.32 0.31 0.32 0.33 0.35 0.36 0.36 0.37 0.37 0.37 0.36 0.36 0.37 0.37 0.37 0.37 0.36 0.36 0.34 0.34 0.33 0.34 0.35 0.37 0.38 0.38 0.38 0.38 0.37 0.37 0.36 0.36 0.36 0.36 0.36
0.32 0.36 0.38 0.34 0.31 0.34 0.36 0.38 0.39 0.37 0.36 0.39 0.37 0.33 0.32 0.32 0.30 0.30 0.29 0.26 0.23 0.17 0.16 0.21 0.23 0.21 0.14 0.14 0.16 0.17 0.17 0.17 0.17 0.18 0.21 0.24 0.25 0.27 0.28 0.29 0.28 0.28 0.29 0.30 0.31 0.31 0.32 0.33 0.33 0.32 0.31 0.31 0.31 0.32 0.33 0.34 0.36 0.36 0.36 0.36 0.36 0.36 0.36 0.37 0.37 0.37 0.36 0.36 0.35 0.33 0.33 0.33 0.33 0.35 0.37 0.37 0.37 0.38 0.38 0.37 0.37 0.37 0.36 0.36 0.35 0.35
0.33 0.34 0.34 0.37 0.43 0.42 0.41 0.37 0.40 0.41 0.41 0.38 0.34 0.31 0.30 0.27 0.29 0.27 0.26 0.26 0.19 0.14 0.18 0.21 0.22 0.21 0.13 0.12 0.17 0.19 0.20 0.20 0.19 0.19 0.22 0.24 0.26 0.27 0.26 0.27 0.28 0.27 0.28 0.29 0.31 0.31 0.32 0.32 0.33 0.32 0.31 0.30 0.31 0.32 0.32 0.34 0.36 0.36 0.36 0.37 0.36 0.36 0.36 0.36 0.36 0.36 0.35 0.35 0.34 0.34 0.34 0.34 0.35 0.36 0.36 0.36 0.36 0.37 0.37 0.36 0.36 0.38 0.37 0.37 0.36 0.35
0.30 0.31 0.38 0.41 0.45 0.40 0.37 0.36 0.36 0.38 0.38 0.35 0.32 0.30 0.24 0.21 0.21 0.18 0.22 0.18 0.18 0.15 0.19 0.21 0.21 0.19 0.14 0.14 0.18 0.19 0.22 0.22 0.23 0.24 0.25 0.26 0.27 0.27 0.26 0.27 0.28 0.28 0.28 0.29 0.30 0.30 0.30 0.31 0.32 0.31 0.31 0.31 0.30 0.31 0.32 0.34 0.36 0.36 0.37 0.37 0.36 0.36 0.36 0.36 0.36 0.35 0.35 0.35 0.35 0.35 0.35 0.35 0.36 0.37 0.37 0.37 0.37 0.37 0.37 0.37 0.36 0.36 0.36 0.37 0.36 0.36
0.29 0.35 0.35 0.34 0.37 0.39 0.38 0.30 0.29 0.29 0.30 0.30 0.26 0.25 0.22 0.18 0.17 0.16 0.17 0.19 0.18 0.19 0.23 0.22 0.24 0.16 0.15 0.18 0.21 0.22 0.23 0.25 0.26 0.27 0.27 0.27 0.28 0.27 0.27 0.27 0.27 0.28 0.29 0.29 0.29 0.29 0.30 0.31 0.31 0.31 0.30 0.30 0.31 0.32 0.34 0.36 0.37 0.37 0.37 0.37 0.37 0.36 0.37 0.36 0.36 0.36 0.36 0.36 0.36 0.37 0.36 0.37 0.37 0.37 0.37 0.37 0.37 0.38 0.38 0.38 0.37 0.36 0.36 0.36 0.36 0.36
0.22 0.22 0.26 0.31 0.29 0.36 0.35 0.32 0.30 0.28 0.25 0.25 0.27 0.25 0.22 0.20 0.17 0.16 0.17 0.15 0.15 0.16 0.19 0.24 0.20 0.15 0.13 0.15 0.23 0.24 0.25 0.27 0.28 0.28 0.29 0.29 0.28 0.28 0.28 0.29 0.29 0.29 0.29 0.29 0.29 0.28 0.29 0.31 0.32 0.32 0.33 0.34 0.35 0.36 0.36 0.37 0.39 0.39 0.39 0.39 0.38 0.37 0.37 0.37 0.36 0.37 0.37 0.37 0.37 0.37 0.37 0.37 0.38 0.37 0.37 0.37 0.38 0.39 0.39 0.38 0.37 0.37 0.37 0.36 0.37 0.36
0.28 0.25 0.27 0.35 0.35 0.35 0.31 0.34 0.35 0.31 0.28 0.28 0.30 0.31 0.25 0.22 0.25 0.20 0.20 0.18 0.17 0.17 0.16 0.18 0.17 0.18 0.17 0.22 0.24 0.26 0.27 0.28 0.29 0.28 0.29 0.28 0.30 0.30 0.29 0.30 0.29 0.29 0.29 0.29 0.28 0.29 0.29 0.31 0.31 0.33 0.36 0.37 0.38 0.40 0.40 0.41 0.41 0.40 0.39 0.39 0.38 0.38 0.38 0.38 0.37 0.37 0.37 0.38 0.38 0.38 0.38 0.38 0.38 0.38 0.38 0.38 0.38 0.38 0.40 0.40 0.39 0.38 0.38 0.37 0.37 0.36
0.32 0.28 0.33 0.36 0.38 0.35 0.34 0.35 0.34 0.34 0.23 0.27 0.29 0.24 0.25 0.29 0.27 0.23 0.24 0.24 0.24 0.22 0.16 0.18 0.19 0.19 0.22 0.22 0.23 0.24 0.25 0.26 0.27 0.28 0.28 0.30 0.31 0.30 0.29 0.29 0.29 0.29 0.28 0.28 0.28 0.28 0.30 0.30 0.30 0.31 0.33 0.35 0.36 0.38 0.39 0.40 0.41 0.40 0.39 0.38 0.38 0.38 0.38 0.38 0.38 0.38 0.38 0.38 0.38 0.38 0.39 0.39 0.39 0.39 0.39 0.39 0.38 0.38 0.39 0.40 0.41 0.40 0.39 0.38 0.37 0.36
0.31 0.30 0.38 0.35 0.33 0.39 0.41 0.40 0.39 0.38 0.36 0.32 0.26 0.28 0.35 0.38 0.34 0.28 0.22 0.23 0.22 0.19 0.19 0.20 0.18 0.18 0.19 0.16 0.23 0.24 0.24 0.25 0.26 0.26 0.28 0.30 0.31 0.30 0.30 0.29 0.30 0.28 0.28 0.28 0.29 0.31 0.31 0.30 0.29 0.30 0.31 0.32 0.34 0.35 0.36 0.38 0.40 0.40 0.40 0.39 0.39 0.38 0.38 0.38 0.39 0.39 0.39 0.39 0.39 0.39 0.40 0.40 0.40 0.40 0.40 0.40 0.39 0.39 0.39 0.40 0.41 0.41 0.40 0.40 0.39 0.37
0.37 0.29 0.33 0.36 0.36 0.40 0.43 0.41 0.37 0.39 0.41 0.33 0.30 0.40 0.28 0.24 0.24 0.28 0.26 0.20 0.19 0.19 0.19 0.20 0.21 0.20 0.20 0.19 0.22 0.23 0.24 0.25 0.25 0.27 0.29 0.29 0.29 0.28 0.28 0.29 0.30 0.29 0.28 0.28 0.29 0.31 0.31 0.31 0.31 0.30 0.30 0.31 0.33 0.34 0.36 0.38 0.41 0.41 0.41 0.41 0.41 0.40 0.40 0.39 0.39 0.40 0.40 0.40 0.40 0.40 0.40 0.40 0.41 0.41 0.41 0.41 0.41 0.40 0.39 0.40 0.40 0.41 0.41 0.41 0.40 0.39
0.37 0.28 0.29 0.36 0.36 0.38 0.40 0.38 0.28 0.31 0.40 0.41 0.40 0.34 0.38 0.32 0.28 0.26 0.27 0.26 0.23 0.19 0.19 0.19 0.21 0.18 0.21 0.23 0.23 0.24 0.25 0.25 0.25 0.26 0.27 0.28 0.28 0.28 0.28 0.28 0.28 0.28 0.28 0.29 0.30 0.30 0.32 0.32 0.31 0.31 0.32 0.32 0.33 0.34 0.36 0.38 0.40 0.41 0.42 0.41 0.40 0.40 0.40 0.40 0.40 0.40 0.40 0.41 0.41 0.40 0.41 0.41 0.42 0.42 0.42 0.42 0.41 0.41 0.40 0.40 0.41 0.41 0.41 0.41 0.41 0.40
0.36 0.37 0.27 0.33 0.38 0.37 0.30 0.33 0.31 0.32 0.31 0.33 0.33 0.31 0.33 0.32 0.35 0.33 0.31 0.26 0.22 0.21 0.21 0.21 0.20 0.20 0.22 0.26 0.26 0.26 0.26 0.28 0.27 0.27 0.27 0.28 0.28 0.28 0.27 0.26 0.27 0.28 0.28 0.29 0.30 0.31 0.32 0.33 0.34 0.34 0.34 0.36 0.37 0.39 0.39 0.40 0.40 0.41 0.43 0.42 0.41 0.40 0.40 0.40 0.40 0.41 0.41 0.41 0.41 0.41 0.41 0.41 0.41 0.42 0.43 0.43 0.43 0.41 0.41 0.41 0.42 0.41 0.41 0.41 0.40 0.40
0.40 0.38 0.31 0.34 0.33 0.32 0.32 0.37 0.36 0.34 0.33 0.30 0.29 0.27 0.28 0.27 0.26 0.23 0.22 0.28 0.26 0.24 0.22 0.22 0.21 0.23 0.24 0.27 0.26 0.26 0.27 0.27 0.29 0.29 0.28 0.28 0.28 0.27 0.28 0.28 0.29 0.30 0.30 0.31 0.32 0.33 0.34 0.36 0.36 0.37 0.38 0.39 0.42 0.40 0.40 0.41 0.42 0.43 0.43 0.43 0.43 0.42 0.41 0.41 0.42 0.42 0.42 0.42 0.42 0.42 0.42 0.42 0.43 0.44 0.44 0.44 0.43 0.43 0.42 0.42 0.42 0.42 0.42 0.41 0.41 0.41
0.42 0.41 0.39 0.36 0.38 0.38 0.39 0.40 0.41 0.40 0.38 0.36 0.36 0.33 0.34 0.31 0.29 0.24 0.20 0.23 0.28 0.28 0.28 0.26 0.23 0.24 0.28 0.29 0.28 0.28 0.28 0.29 0.29 0.29 0.29 0.30 0.30 0.31 0.31 0.31 0.31 0.31 0.32 0.34 0.35 0.35 0.36 0.37 0.37 0.38 0.40 0.41 0.43 0.43 0.41 0.41 0.41 0.42 0.43 0.43 0.43 0.43 0.43 0.43 0.43 0.43 0.44 0.44 0.43 0.42 0.42 0.43 0.43 0.43 0.43 0.43 0.43 0.43 0.43 0.43 0.43 0.43 0.42 0.41 0.41 0.41
0.47 0.39 0.35 0.35 0.38 0.43 0.46 0.46 0.44 0.42 0.40 0.36 0.36 0.37 0.35 0.30 0.30 0.27 0.26 0.27 0.25 0.26 0.24 0.25 0.23 0.25 0.29 0.31 0.31 0.30 0.30 0.31 0.31 0.31 0.31 0.31 0.32 0.33 0.32 0.33 0.33 0.35 0.36 0.38 0.38 0.38 0.39 0.40 0.39 0.40 0.40 0.42 0.43 0.43 0.43 0.42 0.42 0.43 0.43 0.44 0.44 0.44 0.44 0.45 0.44 0.44 0.44 0.44 0.43 0.42 0.42 0.42 0.42 0.42 0.43 0.43 0.44 0.44 0.43 0.44 0.43 0.43 0.42 0.41 0.41 0.40
0.40 0.43 0.39 0.32 0.31 0.31 0.33 0.35 0.35 0.37 0.36 0.33 0.32 0.34 0.35 0.35 0.34 0.33 0.32 0.32 0.27 0.27 0.27 0.25 0.21 0.25 0.30 0.33 0.33 0.31 0.30 0.30 0.31 0.32 0.34 0.33 0.36 0.37 0.37 0.37 0.38 0.38 0.38 0.39 0.39 0.41 0.42 0.42 0.42 0.41 0.43 0.43 0.43 0.44 0.43 0.43 0.43 0.43 0.43 0.43 0.44 0.45 0.46 0.45 0.45 0.45 0.45 0.44 0.43 0.42 0.42 0.42 0.42 0.42 0.42 0.43 0.44 0.44 0.44 0.43 0.43 0.43 0.42 0.41 0.41 0.40
0.48 0.45 0.42 0.31 0.26 0.24 0.23 0.23 0.24 0.27 0.30 0.33 0.34 0.32 0.33 0.33 0.32 0.31 0.28 0.29 0.25 0.27 0.28 0.26 0.25 0.28 0.31 0.33 0.32 0.32 0.31 0.31 0.32 0.33 0.35 0.35 0.35 0.36 0.38 0.39 0.40 0.41 0.41 0.41 0.41 0.43 0.43 0.44 0.44 0.45 0.47 0.48 0.47 0.44 0.43 0.44 0.44 0.43 0.42 0.43 0.44 0.44 0.45 0.46 0.46 0.45 0.44 0.43 0.42 0.42 0.42 0.42 0.42 0.42 0.42 0.43 0.44 0.44 0.44 0.43 0.43 0.43 0.42 0.41 0.40 0.40
0.47 0.48 0.44 0.39 0.34 0.31 0.31 0.32 0.37 0.39 0.37 0.33 0.34 0.34 0.33 0.34 0.35 0.34 0.33 0.29 0.26 0.28 0.28 0.29 0.28 0.28 0.30 0.32 0.31 0.30 0.31 0.31 0.32 0.33 0.34 0.36 0.38 0.39 0.39 0.39 0.41 0.42 0.42 0.42 0.42 0.44 0.45 0.45 0.45 0.46 0.48 0.50 0.49 0.47 0.46 0.45 0.43 0.42 0.43 0.43 0.45 0.46 0.46 0.47 0.47 0.46 0.44 0.44 0.43 0.43 0.43 0.43 0.43 0.43 0.42 0.42 0.43 0.43 0.44 0.44 0.43 0.43 0.42 0.41 0.41 0.40
0.47 0.41 0.40 0.39 0.38 0.38 0.39 0.38 0.38 0.38 0.35 0.35 0.35 0.34 0.37 0.36 0.36 0.34 0.31 0.28 0.31 0.29 0.25 0.28 0.30 0.30 0.32 0.33 0.32 0.31 0.31 0.31 0.32 0.34 0.36 0.37 0.37 0.37 0.38 0.39 0.39 0.40 0.41 0.42 0.43 0.43 0.44 0.45 0.46 0.46 0.48 0.48 0.47 0.47 0.47 0.45 0.43 0.43 0.43 0.44 0.46 0.46 0.47 0.48 0.49 0.47 0.45 0.44 0.44 0.44 0.44 0.44 0.44 0.43 0.43 0.43 0.44 0.44 0.44 0.43 0.43 0.42 0.42 0.42 0.41 0.40
0.42 0.37 0.38 0.39 0.37 0.39 0.40 0.40 0.40 0.39 0.37 0.36 0.35 0.36 0.35 0.36 0.36 0.34 0.33 0.34 0.33 0.29 0.26 0.30 0.33 0.32 0.32 0.34 0.34 0.33 0.33 0.33 0.34 0.36 0.37 0.38 0.38 0.37 0.38 0.38 0.37 0.38 0.39 0.39 0.40 0.42 0.44 0.45 0.48 0.48 0.47 0.46 0.46 0.45 0.45 0.44 0.44 0.45 0.45 0.45 0.46 0.47 0.47 0.48 0.49 0.47 0.47 0.46 0.45 0.45 0.45 0.44 0.44 0.44 0.44 0.44 0.44 0.44 0.43 0.43 0.43 0.43 0.42 0.42 0.40 0.39
0.44 0.37 0.37 0.37 0.35 0.37 0.39 0.39 0.39 0.38 0.36 0.35 0.35 0.36 0.38 0.39 0.38 0.38 0.37 0.37 0.35 0.33 0.35 0.36 0.36 0.34 0.35 0.36 0.36 0.36 0.39 0.41 0.40 0.40 0.39 0.37 0.36 0.37 0.38 0.38 0.37 0.38 0.39 0.40 0.42 0.44 0.45 0.46 0.48 0.46 0.45 0.45 0.44 0.45 0.45 0.44 0.44 0.44 0.44 0.45 0.46 0.47 0.48 0.48 0.48 0.47 0.47 0.46 0.45 0.46 0.46 0.46 0.46 0.46 0.46 0.45 0.45 0.44 0.44 0.43 0.43 0.42 0.41 0.40 0.39 0.38
0.45 0.38 0.43 0.39 0.37 0.37 0.38 0.40 0.40 0.38 0.35 0.33 0.35 0.38 0.41 0.43 0.42 0.40 0.39 0.38 0.38 0.37 0.38 0.37 0.36 0.34 0.38 0.38 0.37 0.40 0.43 0.44 0.44 0.41 0.38 0.36 0.35 0.36 0.37 0.37 0.38 0.40 0.42 0.43 0.44 0.44 0.44 0.45 0.44 0.43 0.42 0.43 0.43 0.44 0.45 0.45 0.45 0.45 0.45 0.46 0.46 0.46 0.47 0.48 0.48 0.47 0.47 0.46 0.46 0.46 0.47 0.46 0.46 0.46 0.45 0.45 0.45 0.44 0.44 0.43 0.43 0.42 0.42 0.41 0.41 0.40
0.46 0.41 0.45 0.42 0.35 0.34 0.38 0.36 0.37 0.38 0.39 0.37 0.36 0.37 0.39 0.37 0.33 0.33 0.32 0.34 0.33 0.31 0.32 0.33 0.32 0.32 0.33 0.36 0.39 0.41 0.41 0.41 0.40 0.39 0.37 0.36 0.35 0.36 0.35 0.35 0.37 0.42 0.46 0.45 0.44 0.44 0.44 0.44 0.43 0.43 0.44 0.44 0.43 0.43 0.45 0.45 0.46 0.45 0.45 0.46 0.46 0.46 0.47 0.47 0.47 0.46 0.46 0.46 0.46 0.47 0.47 0.47 0.46 0.46 0.46 0.46 0.46 0.45 0.44 0.44 0.44 0.43 0.43 0.43 0.42 0.41
0.44 0.41 0.36 0.35 0.31 0.30 0.34 0.36 0.36 0.37 0.36 0.32 0.34 0.34 0.33 0.33 0.34 0.35 0.36 0.36 0.34 0.33 0.30 0.28 0.26 0.29 0.31 0.33 0.33 0.33 0.34 0.35 0.35 0.34 0.33 0.33 0.34 0.36 0.37 0.37 0.38 0.40 0.44 0.47 0.45 0.45 0.45 0.44 0.44 0.45 0.46 0.45 0.44 0.44 0.46 0.46 0.46 0.46 0.46 0.46 0.46 0.48 0.48 0.47 0.46 0.46 0.45 0.46 0.46 0.47 0.47 0.47 0.47 0.47 0.47 0.47 0.47 0.46 0.45 0.45 0.44 0.44 0.44 0.43 0.43 0.42
0.45 0.42 0.38 0.40 0.30 0.31 0.35 0.36 0.37 0.32 0.22 0.23 0.33 0.37 0.37 0.32 0.31 0.30 0.30 0.31 0.31 0.32 0.29 0.30 0.29 0.30 0.31 0.31 0.30 0.29 0.29 0.29 0.31 0.33 0.35 0.36 0.37 0.37 0.37 0.37 0.37 0.39 0.43 0.45 0.46 0.46 0.46 0.46 0.46 0.46 0.47 0.46 0.45 0.45 0.47 0.47 0.47 0.47 0.48 0.48 0.48 0.48 0.48 0.47 0.46 0.46 0.46 0.47 0.47 0.47 0.48 0.48 0.48 0.48 0.48 0.47 0.46 0.45 0.45 0.44 0.44 0.44 0.44 0.44 0.42 0.40
0.42 0.42 0.38 0.40 0.33 0.30 0.35 0.35 0.29 0.21 0.22 0.31 0.35 0.36 0.36 0.34 0.32 0.30 0.29 0.30 0.30 0.31 0.31 0.30 0.31 0.31 0.31 0.31 0.32 0.32 0.32 0.34 0.36 0.37 0.39 0.40 0.40 0.39 0.37 0.36 0.37 0.38 0.41 0.44 0.45 0.46 0.45 0.45 0.47 0.47 0.47 0.47 0.45 0.45 0.47 0.48 0.49 0.48 0.47 0.48 0.48 0.49 0.48 0.48 0.47 0.47 0.48 0.48 0.48 0.49 0.49 0.49 0.48 0.47 0.47 0.46 0.45 0.44 0.43 0.43 0.43 0.43 0.42 0.41 0.39 0.37
0.38 0.38 0.38 0.36 0.36 0.35 0.31 0.28 0.19 0.19 0.31 0.35 0.37 0.36 0.37 0.35 0.34 0.33 0.31 0.32 0.31 0.31 0.31 0.30 0.31 0.33 0.35 0.35 0.35 0.36 0.36 0.37 0.40 0.41 0.41 0.41 0.41 0.41 0.40 0.40 0.39 0.40 0.40 0.42 0.44 0.45 0.46 0.47 0.47 0.47 0.47 0.48 0.44 0.45 0.49 0.50 0.49 0.47 0.46 0.47 0.48 0.49 0.49 0.49 0.48 0.48 0.49 0.49 0.49 0.50 0.50 0.49 0.49 0.48 0.47 0.46 0.44 0.43 0.43 0.43 0.42 0.40 0.40 0.39 0.38 0.37
0.38 0.37 0.36 0.31 0.36 0.25 0.26 0.26 0.24 0.29 0.29 0.31 0.31 0.31 0.30 0.26 0.27 0.28 0.23 0.25 0.30 0.36 0.40 0.38 0.38 0.39 0.39 0.40 0.41 0.42 0.41 0.40 0.38 0.38 0.41 0.44 0.49 0.51 0.50 0.47 0.46 0.45 0.45 0.46 0.46 0.47 0.49 0.49 0.49 0.49 0.50 0.47 0.44 0.45 0.48 0.49 0.48 0.47 0.46 0.45 0.46 0.48 0.48 0.48 0.48 0.49 0.49 0.49 0.50 0.50 0.49 0.49 0.48 0.48 0.47 0.47 0.46 0.44 0.43 0.41 0.40 0.39 0.39 0.38 0.36 0.34
0.41 0.32 0.35 0.31 0.29 0.33 0.25 0.23 0.25 0.24 0.21 0.25 0.31 0.34 0.37 0.36 0.35 0.35 0.33 0.29 0.40 0.45 0.47 0.41 0.41 0.44 0.45 0.45 0.43 0.42 0.42 0.38 0.34 0.36 0.44 0.49 0.49 0.47 0.48 0.49 0.49 0.48 0.47 0.46 0.47 0.49 0.50 0.52 0.53 0.52 0.50 0.47 0.45 0.45 0.47 0.48 0.47 0.46 0.46 0.45 0.45 0.46 0.47 0.48 0.48 0.49 0.50 0.50 0.50 0.50 0.49 0.49 0.49 0.48 0.48 0.48 0.46 0.45 0.44 0.42 0.40 0.39 0.38 0.36 0.34 0.31
0.39 0.40 0.36 0.31 0.27 0.29 0.27 0.23 0.22 0.21 0.24 0.34 0.34 0.39 0.41 0.45 0.42 0.41 0.34 0.28 0.40 0.45 0.47 0.45 0.43 0.44 0.45 0.44 0.45 0.46 0.40 0.35 0.36 0.41 0.47 0.48 0.48 0.50 0.48 0.49 0.50 0.51 0.51 0.50 0.48 0.46 0.47 0.49 0.51 0.51 0.51 0.50 0.46 0.45 0.47 0.48 0.47 0.46 0.45 0.45 0.45 0.45 0.46 0.47 0.48 0.49 0.50 0.51 0.51 0.50 0.50 0.49 0.48 0.48 0.47 0.47 0.46 0.45 0.43 0.41 0.39 0.38 0.37 0.36 0.33 0.31
0.24 0.27 0.28 0.24 0.22 0.25 0.23 0.20 0.19 0.20 0.20 0.28 0.33 0.37 0.41 0.44 0.43 0.37 0.24 0.25 0.36 0.40 0.45 0.44 0.42 0.42 0.43 0.44 0.45 0.44 0.40 0.35 0.37 0.43 0.49 0.50 0.51 0.51 0.50 0.48 0.48 0.50 0.51 0.52 0.51 0.48 0.48 0.49 0.49 0.49 0.48 0.47 0.46 0.46 0.46 0.48 0.47 0.46 0.45 0.46 0.47 0.46 0.46 0.47 0.49 0.50 0.50 0.50 0.50 0.50 0.49 0.48 0.47 0.46 0.46 0.46 0.46 0.44 0.42 0.40 0.39 0.38 0.37 0.35 0.33 0.31
0.16 0.17 0.19 0.16 0.18 0.20 0.21 0.20 0.22 0.24 0.32 0.35 0.36 0.38 0.39 0.46 0.39 0.25 0.20 0.27 0.36 0.40 0.45 0.42 0.42 0.42 0.43 0.42 0.41 0.37 0.41 0.43 0.45 0.47 0.48 0.47 0.46 0.48 0.51 0.51 0.49 0.50 0.49 0.49 0.48 0.48 0.47 0.47 0.49 0.49 0.48 0.49 0.48 0.46 0.46 0.47 0.46 0.45 0.45 0.45 0.44 0.43 0.44 0.46 0.46 0.47 0.48 0.48 0.48 0.48 0.48 0.48 0.47 0.46 0.46 0.46 0.46 0.44 0.41 0.40 0.39 0.38 0.36 0.35 0.34 0.31
0.14 0.16 0.17 0.18 0.15 0.14 0.16 0.17 0.19 0.26 0.35 0.39 0.37 0.38 0.37 0.32 0.25 0.21 0.27 0.37 0.38 0.38 0.39 0.41 0.39 0.41 0.41 0.41 0.38 0.39 0.41 0.44 0.45 0.45 0.44 0.43 0.42 0.44 0.46 0.48 0.50 0.49 0.50 0.52 0.50 0.48 0.46 0.45 0.44 0.45 0.47 0.49 0.49 0.48 0.47 0.47 0.47 0.46 0.45 0.44 0.43 0.44 0.45 0.45 0.45 0.46 0.46 0.46 0.46 0.46 0.47 0.47 0.48 0.47 0.46 0.46 0.44 0.42 0.40 0.39 0.38 0.37 0.36 0.34 0.32 0.30
0.13 0.13 0.12 0.13 0.14 0.14 0.15 0.15 0.14 0.12 0.25 0.35 0.34 0.33 0.33 0.24 0.23 0.31 0.35 0.36 0.38 0.37 0.37 0.37 0.38 0.38 0.40 0.37 0.38 0.39 0.40 0.40 0.41 0.41 0.42 0.43 0.43 0.44 0.45 0.45 0.46 0.47 0.48 0.48 0.48 0.49 0.48 0.46 0.46 0.45 0.45 0.47 0.48 0.48 0.47 0.46 0.46 0.45 0.44 0.43 0.45 0.46 0.46 0.46 0.46 0.46 0.46 0.45 0.45 0.45 0.46 0.46 0.46 0.46 0.46 0.44 0.42 0.40 0.39 0.38 0.38 0.36 0.35 0.32 0.30 0.28
0.15 0.11 0.11 0.12 0.15 0.13 0.13 0.12 0.13 0.21 0.25 0.28 0.25 0.22 0.27 0.29 0.35 0.37 0.36 0.32 0.35 0.36 0.35 0.35 0.35 0.37 0.37 0.37 0.38 0.37 0.39 0.39 0.39 0.40 0.42 0.43 0.43 0.44 0.45 0.46 0.46 0.48 0.50 0.51 0.50 0.49 0.48 0.47 0.46 0.46 0.46 0.46 0.46 0.47 0.46 0.44 0.42 0.42 0.42 0.43 0.45 0.46 0.47 0.47 0.46 0.46 0.46 0.45 0.45 0.45 0.44 0.44 0.44 0.45 0.45 0.43 0.42 0.41 0.39 0.38 0.38 0.36 0.34 0.32 0.30 0.28
0.14 0.15 0.18 0.15 0.20 0.18 0.15 0.18 0.23 0.26 0.25 0.25 0.23 0.22 0.25 0.30 0.36 0.36 0.34 0.33 0.31 0.32 0.33 0.31 0.32 0.33 0.34 0.34 0.34 0.35 0.36 0.36 0.35 0.36 0.37 0.38 0.39 0.41 0.42 0.44 0.46 0.47 0.48 0.49 0.49 0.49 0.49 0.48 0.47 0.47 0.46 0.47 0.46 0.45 0.44 0.43 0.42 0.42 0.42 0.43 0.45 0.45 0.45 0.46 0.46 0.46 0.45 0.44 0.44 0.44 0.44 0.44 0.44 0.44 0.44 0.43 0.42 0.41 0.40 0.39 0.38 0.36 0.34 0.32 0.30 0.28
0.16 0.15 0.15 0.15 0.14 0.18 0.20 0.20 0.21 0.20 0.21 0.21 0.22 0.23 0.25 0.29 0.30 0.29 0.27 0.26 0.27 0.28 0.29 0.29 0.27 0.29 0.30 0.31 0.31 0.32 0.33 0.33 0.34 0.34 0.35 0.36 0.36 0.37 0.38 0.40 0.41 0.42 0.42 0.44 0.46 0.47 0.47 0.48 0.48 0.48 0.47 0.47 0.47 0.45 0.45 0.44 0.43 0.41 0.42 0.45 0.45 0.44 0.44 0.45 0.45 0.45 0.45 0.44 0.43 0.42 0.42 0.43 0.44 0.45 0.44 0.44 0.43 0.42 0.41 0.40 0.38 0.36 0.35 0.33 0.30 0.28
0.13 0.15 0.13 0.12 0.13 0.11 0.08 0.11 0.13 0.15 0.16 0.17 0.18 0.24 0.26 0.25 0.24 0.24 0.23 0.23 0.24 0.25 0.25 0.25 0.26 0.26 0.27 0.28 0.28 0.28 0.28 0.30 0.31 0.32 0.33 0.34 0.34 0.34 0.34 0.35 0.36 0.37 0.38 0.38 0.41 0.43 0.43 0.44 0.44 0.46 0.46 0.45 0.46 0.46 0.46 0.45 0.44 0.44 0.44 0.43 0.43 0.43 0.43 0.43 0.43 0.43 0.44 0.43 0.42 0.41 0.40 0.39 0.40 0.41 0.43 0.43 0.43 0.42 0.41 0.39 0.37 0.35 0.34 0.32 0.30 0.28
0.10 0.13 0.11 0.10 0.09 0.09 0.09 0.11 0.12 0.13 0.14 0.16 0.17 0.20 0.20 0.20 0.21 0.21 0.22 0.22 0.22 0.22 0.23 0.24 0.25 0.25 0.26 0.25 0.26 0.26 0.26 0.27 0.28 0.29 0.31 0.32 0.32 0.32 0.32 0.32 0.33 0.33 0.35 0.36 0.37 0.38 0.39 0.39 0.40 0.42 0.44 0.44 0.44 0.44 0.43 0.43 0.43 0.43 0.42 0.42 0.43 0.42 0.41 0.41 0.41 0.40 0.40 0.40 0.42 0.42 0.41 0.41 0.41 0.40 0.39 0.38 0.39 0.39 0.38 0.37 0.36 0.34 0.32 0.31 0.31 0.30
0.11 0.11 0.08 0.09 0.08 0.10 0.12 0.12 0.12 0.13 0.12 0.11 0.12 0.16 0.16 0.17 0.19 0.20 0.20 0.20 0.21 0.20 0.21 0.22 0.23 0.23 0.23 0.23 0.24 0.24 0.23 0.24 0.25 0.26 0.27 0.28 0.28 0.29 0.30 0.30 0.31 0.32 0.33 0.33 0.35 0.36 0.35 0.36 0.37 0.38 0.40 0.42 0.44 0.43 0.42 0.40 0.40 0.40 0.41 0.41 0.41 0.41 0.40 0.38 0.37 0.37 0.37 0.38 0.39 0.40 0.41 0.41 0.41 0.40 0.38 0.38 0.36 0.35 0.35 0.34 0.33 0.32 0.32 0.32 0.31 0.30
0.11 0.08 0.09 0.10 0.09 0.08 0.07 0.08 0.11 0.08 0.07 0.08 0.10 0.14 0.15 0.17 0.18 0.17 0.17 0.18 0.18 0.19 0.20 0.20 0.20 0.21 0.21 0.22 0.22 0.22 0.22 0.22 0.23 0.24 0.24 0.25 0.26 0.26 0.27 0.28 0.29 0.30 0.31 0.33 0.35 0.35 0.34 0.34 0.35 0.35 0.35 0.36 0.39 0.39 0.39 0.38 0.38 0.38 0.38 0.38 0.38 0.39 0.38 0.37 0.37 0.36 0.35 0.34 0.33 0.35 0.37 0.39 0.38 0.38 0.38 0.36 0.36 0.36 0.36 0.36 0.35 0.33 0.32 0.31 0.31 0.30
0.10 0.09 0.09 0.09 0.08 0.07 0.09 0.11 0.13 0.12 0.11 0.10 0.11 0.14 0.16 0.16 0.15 0.14 0.14 0.14 0.15 0.16 0.17 0.18 0.18 0.19 0.20 0.21 0.22 0.21 0.21 0.22 0.22 0.23 0.23 0.23 0.23 0.24 0.25 0.25 0.25 0.26 0.27 0.28 0.29 0.29 0.29 0.30 0.31 0.32 0.32 0.33 0.34 0.36 0.36 0.36 0.37 0.38 0.37 0.36 0.36 0.35 0.35 0.36 0.35 0.34 0.34 0.34 0.32 0.31 0.31 0.32 0.34 0.34 0.34 0.33 0.33 0.32 0.32 0.32 0.32 0.32 0.31 0.30 0.29 0.29
Wind_Speed
25 26 28 27 28 28 27 28 31 32 31 31 31 31 32 32 32 32 31 29 26 30 32 32 34 35 33 32 29 29 28 28 29 29 29 30 30 30 30 29 29 29 30 29 28 28 28 29 28 28 28 28 29 29 29 28 28 28 27 28 28 28 28 27 27 26 26 26 25 25 26 26 26 26 26 27 27 27 27 28 28 27 27 28 28 28
26 29 30 29 30 28 27 28 31 32 32 32 32 33 33 32 34 34 32 31 28 31 35 34 36 37 34 33 30 28 27 27 29 28 29 30 29 29 30 30 30 30 30 29 28 28 27 27 27 27 27 27 28 28 28 28 28 28 28 28 28 28 28 28 27 27 26 26 26 26 26 26 26 27 27 27 27 27 27 28 28 28 28 28 28 29
29 32 31 30 29 27 27 28 29 31 32 33 32 33 34 33 35 35 33 32 30 31 35 35 36 37 35 33 31 29 28 29 30 29 29 30 28 29 29 30 30 30 30 28 27 26 26 26 26 26 26 27 28 28 28 28 28 28 28 28 28 28 28 28 27 27 26 26 26 26 26 26 26 26 26 26 27 27 28 28 29 29 29 29 30 30
32 32 31 30 28 28 30 29 29 31 32 32 32 33 35 33 34 36 33 31 31 32 35 35 37 37 35 34 32 30 30 30 30 30 30 30 29 30 30 29 29 29 28 27 26 25 25 24 25 25 26 26 27 27 27 27 27 27 27 27 27 28 28 28 27 27 26 25 25 25 25 25 25 25 26 26 26 27 28 28 29 30 30 30 31 31
36 32 29 29 29 29 31 30 28 29 31 33 34 34 35 35 34 37 35 33 33 35 34 35 38 38 34 34 33 29 29 29 30 31 31 31 31 31 31 30 30 30 28 26 25 24 24 24 24 24 25 26 27 27 27 27 27 27 27 27 28 28 28 28 28 27 26 25 25 24 24 24 24 25 25 26 26 27 28 29 30 31 31 31 31 31
37 32 28 29 30 30 31 31 28 27 31 35 34 32 35 35 35 36 35 33 34 35 33 32 35 36 31 31 32 28 27 29 29 29 29 30 31 31 30 29 30 29 27 25 24 24 24 24 24 24 24 25 26 27 27 27 27 27 27 27 28 28 28 28 28 27 26 26 25 25 24 24 24 25 26 27 28 28 29 30 31 31 31 31 31 32
34 30 28 29 30 30 30 30 28 26 30 34 31 29 31 33 33 34 33 31 32 33 32 28 29 34 33 30 31 29 29 29 28 27 28 29 29 29 28 28 28 26 25 24 24 23 23 23 23 23 24 25 26 26 26 26 26 27 27 27 28 28 28 28 28 27 27 27 26 26 26 26 26 27 28 29 29 29 29 30 31 31 31 31 31 32
30 29 29 29 30 29 29 30 28 25 29 33 29 27 28 30 31 31 30 30 31 33 33 30 28 33 37 34 30 29 29 29 28 27 28 27 27 27 27 28 27 25 24 24 23 23 23 23 22 23 23 25 26 26 26 26 26 26 27 27 28 28 28 28 28 28 28 28 27 27 27 27 28 29 29 29 29 29 29 30 30 31 31 31 31 32
29 28 29 29 29 29 30 30 27 25 29 31 28 28 28 28 30 28 28 30 30 31 32 30 26 30 38 37 30 29 28 27 28 28 27 25 25 26 27 28 27 26 25 24 23 23 23 23 23 24 24 25 25 26 26 26 26 26 26 27 28 28 29 29 29 29 29 29 28 28 28 28 29 29 30 29 29 28 29 29 30 30 30 31 31 32
30 29 30 28 28 30 30 29 27 26 30 30 27 28 28 28 28 27 29 29 28 31 31 27 24 26 37 38 29 27 27 27 28 27 25 24 24 26 26 26 27 26 25 24 23 22 23 24 24 24 24 24 25 25 25 25 25 26 26 27 28 29 29 29 30 30 30 30 30 29 30 30 29 30 29 29 28 28 28 29 29 29 30 30 31 32
31 30 30 30 30 31 29 28 27 28 29 28 26 28 28 29 29 27 29 27 27 32 30 27 26 25 32 33 25 24 26 26 27 26 25 26 26 28 27 26 27 27 25 24 22 22 22 22 23 23 23 23 24 25 25 25 26 26 27 28 29 29 30 30 31 31 31 31 31 31 31 31 31 30 29 29 29 29 29 29 29 30 30 31 32 32
32 31 32 32 31 30 28 28 29 29 28 28 27 28 28 29 28 27 28 25 26 31 28 26 27 26 30 30 24 25 27 26 27 26 27 27 27 28 28 27 28 27 26 24 22 21 21 21 22 23 23 23 24 25 26 26 26 27 28 29 30 30 31 31 32 32 32 32 32 32 32 32 31 31 31 30 29 29 29 30 30 30 30 31 32 32
33 34 33 32 32 30 28 30 31 31 29 28 27 27 26 27 26 26 26 24 27 31 29 26 26 28 35 35 31 32 32 30 30 29 29 28 27 29 30 30 29 26 24 24 22 21 21 21 22 22 23 23 24 25 26 27 27 27 28 29 30 31 32 32 32 33 33 33 33 33 32 32 32 32 32 31 31 30 30 30 30 30 31 31 32 32
33 35 33 32 32 30 29 31 32 31 30 29 29 27 25 25 25 26 26 26 29 32 30 27 26 29 34 34 32 35 34 31 30 30 30 29 29 31 30 30 29 26 24 23 22 21 20 21 22 22 23 24 25 26 26 27 28 28 29 30 31 32 32 33 33 33 34 34 34 34 33 33 33 33 33 33 32 32 31 31 31 31 31 31 32 33
31 35 32 30 31 30 30 32 31 29 29 31 30 28 28 27 25 24 25 27 29 30 30 27 25 29 31 31 31 32 32 31 31 32 33 33 33 32 30 29 28 26 24 23 22 21 21 21 21 22 23 24 25 26 27 28 29 29 30 30 31 32 33 33 34 34 35 35 35 35 34 34 34 34 34 34 34 33 33 32 32 32 32 32 32 33
32 37 36 32 31 29 31 33 30 27 29 32 29 28 32 31 28 27 30 31 28 29 30 29 29 33 34 36 37 35 36 35 34 34 34 34 34 32 31 29 27 25 24 23 22 22 21 21 22 23 24 25 26 27 28 29 30 30 30 31 32 32 33 34 34 35 35 36 36 36 35 35 35 35 35 35 35 35 35 34 33 33 33 32 32 33
34 37 36 34 33 32 31 32 30 28 30 31 29 31 33 30 29 30 32 32 28 30 33 33 34 36 36 37 36 33 34 34 33 34 34 34 33 32 31 29 26 24 24 24 23 22 22 22 23 25 25 26 27 28 29 30 31 32 32 32 32 33 34 34 35 36 36 37 37 37 37 36 36 36 37 37 36 36 35 35 35 34 34 33 33 33
36 38 37 35 36 36 34 32 32 32 32 31 31 33 31 29 30 30 28 29 29 31 34 36 39 38 35 34 32 30 33 35 35 36 35 34 32 30 30 28 25 24 24 24 23 22 23 24 25 26 26 27 28 29 30 31 32 32 32 33 33 34 35 35 36 36 37 37 38 38 38 38 38 38 38 37 37 37 36 36 35 35 35 35 35 34
37 38 38 37 38 37 34 33 35 35 33 32 33 33 30 29 30 30 28 28 30 32 33 36 40 39 36 35 33 33 34 35 35 33 31 30 29 28 27 26 25 24 24 24 24 24 24 25 27 28 29 29 30 31 31 31 32 32 34 34 35 36 36 36 36 37 38 39 39 39 39 39 38 39 38 38 38 38 37 36 36 36 36 36 36 35
36 36 36 36 38 38 35 35 37 36 34 33 33 33 32 32 31 31 31 30 30 32 33 35 37 38 37 34 32 33 32 31 31 29 27 26 26 26 25 25 25 25 26 26 26 27 27 28 29 29 31 31 32 32 32 32 33 34 35 35 36 37 37 37 37 38 39 40 40 40 40 40 40 39 39 39 39 38 38 37 37 36 36 36 36 36
35 36 36 35 36 37 37 37 37 36 35 34 35 35 35 35 33 32 33 33 33 33 32 33 34 38 39 33 30 32 30 28 29 28 26 26 25 25 24 25 26 26 28 28 28 29 30 30 31 32 33 33 33 34 34 35 35 36 36 37 38 38 38 38 39 40 40 41 41 41 41 41 40 40 40 40 40 39 39 38 37 37 36 36 36 36
32 34 35 35 35 36 38 38 37 37 36 35 37 38 37 37 35 33 34 35 35 34 33 33 33 37 38 33 31 32 31 30 30 28 28 27 26 26 27 27 28 29 30 31 32 33 33 33 34 34 34 35 35 36 36 37 37 38 38 39 39 39 40 40 41 41 42 42 42 42 42 41 41 41 41 41 41 40 40 39 38 37 37 37 37 37
32 32 33 34 34 35 36 36 35 36 36 36 37 37 37 37 37 36 35 35 34 34 35 36 36 38 39 36 36 38 36 36 36 34 33 31 30 30 30 30 30 31 32 34 35 36 35 35 35 35 36 38 38 38 38 39 39 40 41 40 40 41 42 43 43 43 43 43 43 43 42 42 41 41 42 42 42 41 40 39 39 38 38 38 38 38
31 30 31 33 34 35 36 35 33 33 34 35 36 36 36 37 37 38 37 35 34 33 34 36 36 38 39 39 39 40 39 38 38 37 35 33 34 34 34 34 34 34 35 37 38 39 39 38 37 37 39 40 40 40 40 41 42 42 42 42 42 43 44 44 44 43 43 43 43 43 43 42 42 42 42 42 42 41 40 40 39 39 39 39 39 39
32 30 29 29 31 32 33 34 35 35 35 36 37 36 37 38 37 37 37 36 35 36 38 38 37 39 40 39 39 41 41 41 40 38 36 35 35 35 36 38 39 39 39 40 40 41 42 41 40 40 41 41 42 42 41 42 42 43 43 43 43 44 44 44 44 44 43 43 43 43 43 43 42 42 42 41 42 41 40 40 40 40 40 40 40 39
36 35 33 32 32 33 34 35 37 37 37 37 38 38 38 37 37 37 37 36 36 39 41 39 40 42 41 40 42 44 45 44 43 42 41 39 38 39 40 42 42 42 42 43 44 44 45 45 43 43 43 43 43 42 42 42 43 43 43 43 43 44 44 44 44 44 43 43 43 43 43 43 43 42 42 41 41 41 41 41 41 41 41 41 41 40
39 39 41 43 42 42 43 43 41 39 39 39 39 39 39 37 37 37 36 36 37 39 40 42 44 45 42 41 44 45 45 46 45 43 41 39 40 42 43 43 44 44 45 46 46 46 47 47 46 45 44 43 42 42 43 43 43 42 42 43 44 44 43 43 43 43 43 43 43 43 43 43 43 42 42 41 41 41 41 41 41 42 42 42 41 41
42 44 48 50 51 49 48 48 46 45 46 46 45 45 44 41 40 40 40 40 40 39 41 44 44 44 42 42 44 45 45 45 43 41 40 40 42 42 42 43 44 45 45 45 45 46 46 47 46 45 43 42 42 43 43 43 42 42 42 43 43 43 43 42 42 42 43 43 43 43 43 43 42 42 42 42 41 41 41 41 42 42 42 41 41 41
44 47 49 50 52 52 51 51 50 49 50 50 49 50 50 48 47 47 48 47 46 45 46 46 45 46 46 44 45 46 46 44 42 42 43 44 44 43 41 42 43 44 45 44 43 44 43 43 42 41 41 41 41 42 42 42 41 41 42 43 43 42 42 41 41 42 42 42 43 43 42 42 41 41 41 41 41 41 41 41 41 41 41 41 41 40
45 47 48 49 52 52 51 52 52 53 53 53 54 53 53 52 52 52 52 51 52 53 53 52 53 54 51 48 49 49 48 45 44 45 46 46 46 44 42 43 44 45 46 45 43 42 40 40 40 39 39 40 40 41 41 41 41 42 43 43 42 42 42 41 41 41 42 42 42 42 41 41 40 40 40 40 40 40 40 40 40 40 41 40 40 40
45 47 47 49 50 50 50 51 52 53 53 54 54 53 52 53 54 54 54 53 54 56 57 57 59 58 53 52 53 52 50 49 48 49 50 49 48 46 45 46 46 45 45 45 43 40 39 39 39 39 38 39 39 40 40 41 42 43 43 43 42 42 41 41 42 42 42 42 41 40 40 40 39 39 39 39 39 39 39 39 39 40 40 40 40 40
43 46 46 46 47 48 49 51 51 52 52 52 52 51 51 53 54 54 53 52 52 55 57 57 57 56 54 53 53 52 53 52 52 52 52 52 53 52 50 51 50 47 46 45 43 40 40 40 40 41 41 40 40 41 41 42 42 43 43 42 42 42 42 42 42 42 41 41 40 39 39 39 38 38 38 38 38 38 38 38 39 39 40 40 40 40
43 45 45 44 46 48 49 50 51 49 46 46 47 48 50 53 54 53 52 52 53 54 55 55 56 56 54 52 53 54 54 53 53 53 54 55 56 55 54 53 53 51 49 47 45 44 44 44 43 43 42 42 42 43 43 43 43 43 43 43 42 42 42 43 42 42 41 40 39 39 38 38 38 38 38 38 39 39 38 39 39 40 40 40 39 39
45 46 46 45 45 46 47 48 48 44 42 44 46 48 50 52 53 55 55 56 56 56 56 57 57 57 54 53 54 54 54 54 55 55 54 53 52 53 54 54 53 53 51 49 48 47 47 46 44 42 42 43 45 45 45 45 44 44 44 43 42 42 42 42 42 41 40 40 39 39 38 39 39 39 39 39 39 39 39 39 39 39 39 38 37 36
47 48 47 46 45 45 45 44 43 42 44 47 48 49 51 53 56 57 58 59 59 58 58 59 59 57 55 55 55 55 55 54 53 52 51 50 50 51 53 53 52 51 50 49 48 47 46 45 43 43 43 44 45 45 45 44 43 42 42 42 42 41 41 41 41 41 40 40 39 39 39 40 40 39 39 39 39 39 39 39 38 38 37 36 36 36
49 49 47 46 45 44 42 42 44 45 46 45 45 46 48 51 53 55 57 59 59 57 56 57 59 58 57 56 55 54 54 53 51 50 50 49 49 49 50 51 51 51 49 48 47 47 46 45 45 45 45 44 43 43 43 43 42 42 42 41 41 40 40 41 41 41 41 40 40 41 41 41 41 41 40 40 39 39 38 38 38 37 36 35 35 35
48 49 48 47 46 45 46 47 50 51 49 46 46 46 47 49 49 49 52 54 52 49 48 50 54 55 54 53 52 52 52 50 48 47 45 44 44 43 44 45 46 47 47 46 46 47 47 46 46 46 45 44 42 41 41 42 41 41 41 41 40 39 39 40 41 41 41 42 42 42 42 42 42 42 41 40 39 39 38 38 37 36 35 35 34 34
44 46 46 45 44 45 47 46 44 45 45 44 45 45 46 48 46 45 48 48 44 41 40 42 45 46 45 45 47 48 46 43 43 42 40 40 41 41 41 40 40 40 40 40 41 42 43 43 44 44 43 42 41 40 40 40 40 40 40 40 39 39 39 40 41 41 42 42 43 43 43 43 42 41 40 40 39 39 38 37 37 36 35 35 35 34
42 43 43 44 45 45 44 40 39 40 39 38 41 42 44 45 43 40 42 41 39 38 38 38 39 39 38 40 42 42 39 37 38 38 38 40 40 40 39 39 38 37 37 36 37 37 38 39 39 39 39 39 39 38 37 38 39 39 39 39 39 39 40 41 41 42 42 43 42 42 42 42 42 41 41 40 39 38 38 37 37 36 36 36 35 35
44 43 42 44 46 48 48 46 44 43 40 39 41 42 43 44 40 37 36 37 37 37 35 34 36 36 36 36 37 35 34 34 36 38 39 40 40 38 38 38 38 38 37 37 37 36 36 36 36 36 37 37 37 37 36 37 37 38 39 39 39 40 41 42 43 43 42 42 42 42 42 42 42 42 41 39 38 38 38 38 38 37 36 36 36 35
44 44 45 45 46 47 48 48 46 42 38 37 38 38 39 40 37 34 35 38 39 38 35 34 34 35 35 36 36 35 35 37 38 39 40 40 39 39 38 38 38 38 38 37 38 37 37 37 36 36 36 36 36 36 37 37 37 38 39 38 39 41 42 42 42 42 41 41 41 42 42 42 42 41 39 38 38 38 38 38 38 38 37 36 36 35
42 42 42 43 44 44 44 44 43 39 33 31 32 33 33 34 34 34 37 38 37 37 36 35 36 36 36 37 38 39 40 40 40 40 40 40 41 41 40 39 38 38 38 38 37 37 37 38 37 36 36 35 35 36 37 37 38 39 38 39 40 40 40 39 40 40 41 41 41 41 41 41 41 40 38 38 38 38 38 38 37 37 36 36 35 34
41 42 43 43 44 45 45 44 42 40 37 34 35 33 31 30 33 37 38 37 36 36 37 37 37 38 38 39 40 40 41 41 41 40 40 40 40 40 40 40 39 39 39 38 38 37 37 37 37 37 37 36 37 38 38 38 38 38 38 39 39 38 37 38 39 40 40 40 40 40 41 41 40 39 39 39 39 38 38 37 36 36 35 35 35 34
43 43 44 43 42 41 41 41 40 41 42 41 40 39 36 34 34 34 33 34 34 35 36 37 37 38 39 40 40 40 41 42 43 43 42 42 41 41 41 41 41 40 39 39 39 39 39 39 39 39 38 38 38 39 39 38 38 38 39 39 38 37 37 38 38 39 39 40 40 40 41 41 41 41 40 40 40 39 38 38 37 36 36 36 35 35
43 42 43 42 41 40 40 42 43 44 45 44 43 43 43 40 37 36 35 36 37 38 39 40 40 40 41 42 43 44 44 45 46 46 45 45 44 43 43 42 42 41 41 41 41 41 41 41 41 40 40 39 39 39 39 39 39 39 39 39 38 37 37 38 37 38 38 39 40 40 40 41 42 42 42 41 41 41 40 40 38 37 37 37 36 36
41 42 43 44 45 47 47 48 48 47 47 48 46 43 42 41 41 42 42 43 44 45 46 47 47 48 47 47 48 48 48 48 48 47 46 46 45 45 44 44 44 43 43 44 44 43 42 42 42 42 42 41 41 41 41 41 41 41 41 40 39 39 39 38 38 38 38 39 40 41 41 42 42 43 43 43 42 42 42 42 41 40 39 38 37 37
39 40 42 43 45 48 49 51 50 48 50 51 47 42 40 42 44 45 46 48 49 50 50 51 52 52 52 51 50 51 50 49 48 48 47 46 46 46 46 46 47 46 46 45 45 45 44 44 44 44 44 44 43 43 43 43 43 43 42 41 41 41 40 40 39 38 39 39 40 41 42 42 43 43 43 43 42 42 43 44 44 43 42 41 40 39
38 38 40 42 44 45 46 48 48 47 49 49 45 41 42 44 45 46 47 48 49 50 50 51 51 51 51 51 52 53 53 51 49 49 49 48 48 48 48 48 49 48 48 47 47 47 47 47 47 47 46 46 46 46 46 46 46 46 45 44 43 43 42 42 42 41 41 41 40 41 42 43 43 43 43 43 44 44 44 45 45 45 44 44 42 41
37 38 39 40 42 43 44 43 42 43 46 47 44 43 44 46 46 46 47 47 48 48 48 49 49 49 50 50 51 51 52 52 51 51 51 50 50 50 50 50 50 49 49 49 49 49 49 49 49 49 49 49 49 49 49 49 49 48 47 46 46 46 45 45 45 45 44 43 42 42 43 44 45 46 46 47 47 47 47 47 47 47 46 45 45 44
35 37 38 37 39 41 41 39 37 40 44 45 43 42 45 47 48 48 49 49 49 49 48 49 49 49 49 49 49 49 50 51 52 53 53 53 53 52 52 52 52 51 51 51 51 52 52 52 52 52 52 52 52 51 52 52 52 51 50 49 49 49 49 49 48 48 48 47 47 46 46 47 48 49 50 50 50 50 49 49 49 49 48 48 48 47
34 36 36 36 38 41 41 38 37 38 42 43 43 43 45 46 47 48 49 49 49 50 51 51 51 51 50 50 49 49 50 52 54 55 55 56 55 55 54 54 54 54 54 54 55 55 55 55 55 54 54 54 54 53 54 54 53 53 52 51 51 51 52 51 51 51 51 51 51 51 51 51 51 52 52 52 51 51 50 50 50 51 50 50 50 49
Wind_Direction
268 270 269 269 271 272 270 268 269 274 277 278 279 279 280 280 282 283 286 286 284 283 282 281 282 283 284 285 285 284 284 283 282 281 280 281 282 281 280 280 279 277 277 278 276 273 270 270 269 267 264 262 261 261 259 257 256 254 251 249 248 248 249 249 249 249 249 250 252 254 257 259 260 261 263 265 266 267 266 265 265 265 266 267 267 267
269 268 268 268 272 273 271 268 270 273 274 275 277 279 279 279 281 283 284 285 284 282 283 283 283 282 283 285 285 283 284 283 282 281 281 281 279 280 281 281 280 278 279 280 278 274 272 270 268 266 264 260 259 258 256 255 254 252 250 248 247 247 248 248 248 248 249 250 252 255 257 259 260 261 263 265 268 268 267 266 266 266 267 267 268 268
271 269 269 271 274 275 273 271 271 272 272 274 276 277 278 279 282 283 282 285 284 281 283 284 283 282 282 283 283 282 281 281 281 280 280 280 280 281 282 282 280 279 280 280 278 276 273 270 266 264 262 259 258 257 255 254 253 251 250 248 247 246 246 246 247 248 250 251 253 256 258 259 261 263 265 268 270 270 269 267 266 267 267 268 268 267
270 272 273 272 274 274 274 273 272 273 274 273 274 275 277 279 282 282 283 285 284 282 284 286 284 282 283 283 283 281 280 279 280 279 279 280 280 281 281 282 281 279 280 280 279 277 273 270 267 263 261 259 258 256 255 254 252 251 249 247 245 245 245 246 247 248 250 251 254 257 259 261 264 266 269 271 272 271 270 269 268 268 268 268 268 267
269 273 273 271 271 271 272 272 271 273 275 273 272 273 276 279 278 280 285 288 285 283 284 287 286 282 280 280 281 282 279 278 279 280 281 281 280 280 281 281 280 279 279 280 279 275 272 270 267 263 260 259 257 256 254 252 251 250 248 245 244 244 245 247 247 248 249 251 254 257 259 262 266 268 270 272 272 271 270 269 269 269 268 268 268 267
270 272 272 271 271 270 271 273 271 270 275 275 272 270 274 277 277 279 285 289 286 285 285 285 285 284 281 277 280 284 281 280 281 281 281 280 280 280 280 279 279 279 279 280 278 274 271 269 266 262 259 258 257 255 253 251 249 249 248 246 245 246 247 248 248 248 250 251 252 255 257 260 264 267 269 270 270 269 269 269 269 269 268 267 268 267
271 270 269 269 270 270 271 273 272 268 273 276 274 271 273 275 277 279 282 284 282 283 286 282 281 286 286 281 282 284 281 280 281 282 282 282 281 280 278 278 278 278 278 279 277 273 270 267 264 261 258 257 257 255 253 252 250 249 248 246 246 247 248 248 248 248 250 251 252 254 257 260 264 267 269 270 271 270 270 270 270 270 269 268 268 268
271 270 268 267 269 270 270 273 273 269 270 276 278 275 274 275 276 278 279 278 279 282 283 279 278 285 286 284 283 281 278 279 281 283 285 283 280 278 277 278 277 277 278 278 275 270 267 264 261 259 258 258 257 255 252 251 250 249 248 246 246 248 249 248 248 249 250 251 253 255 259 262 265 268 270 272 273 272 272 271 271 270 270 269 269 269
272 269 268 268 268 269 270 272 273 268 270 277 280 277 276 276 276 277 278 277 281 284 281 276 276 282 285 285 284 280 277 279 282 284 285 284 280 278 277 277 277 279 280 278 274 269 265 262 260 259 260 259 257 254 251 250 250 249 248 247 247 248 249 249 249 250 250 251 253 256 259 263 266 269 271 273 274 274 272 271 270 270 270 270 269 269
272 270 270 268 268 270 273 275 273 267 271 277 279 279 281 280 280 280 278 278 281 281 277 275 275 282 286 285 281 278 278 280 284 286 286 285 282 279 278 277 278 281 282 279 274 270 266 263 261 261 261 260 257 254 251 251 250 250 249 248 248 248 249 250 250 250 250 251 254 257 259 262 266 269 270 272 274 274 273 271 270 269 269 270 270 269
271 272 271 269 270 273 275 277 276 272 274 277 278 279 282 281 281 280 278 279 280 277 273 271 272 280 285 285 281 278 280 282 284 286 287 288 286 281 279 279 281 283 282 280 274 269 268 266 263 262 262 259 257 255 253 252 251 250 250 249 248 249 250 250 250 250 250 251 254 258 260 263 265 267 269 270 272 273 272 271 270 269 269 269 269 269
271 270 271 272 273 274 276 277 279 279 277 277 276 277 279 280 281 281 279 277 274 275 275 270 271 271 273 279 284 285 288 288 285 285 286 287 287 283 280 281 282 282 281 279 274 269 267 265 264 263 262 260 257 255 253 253 252 251 251 250 250 251 251 251 251 251 251 252 256 259 262 264 265 267 267 268 270 271 271 271 270 269 269 268 268 268
270 268 270 274 273 271 273 275 278 280 277 274 274 273 275 279 280 279 277 275 272 274 276 273 273 269 268 274 281 284 288 288 285 285 285 286 286 283 281 281 282 282 279 275 272 269 265 264 265 264 263 260 257 255 254 253 252 252 252 251 251 251 251 251 252 252 252 254 257 261 263 264 265 267 267 268 270 270 270 271 271 270 269 268 267 267
274 272 269 270 272 269 268 270 273 276 274 269 268 266 266 272 276 275 275 277 275 275 276 274 272 273 276 279 279 279 282 282 281 283 283 284 284 281 279 281 282 282 279 273 269 268 265 265 266 266 264 262 258 256 255 255 254 253 253 252 252 252 252 253 253 253 254 256 259 262 264 265 266 267 267 269 270 269 269 271 271 270 269 268 267 266
272 275 269 266 270 268 264 266 268 274 274 269 269 267 263 265 268 270 273 275 277 280 279 272 268 273 280 283 281 282 285 285 284 284 283 284 284 281 280 282 283 281 277 272 269 268 267 266 267 267 265 263 261 258 257 257 255 255 254 253 252 252 253 253 254 255 256 258 261 263 265 266 267 268 269 270 271 270 269 269 271 271 269 268 268 267
269 272 270 268 270 266 263 266 267 271 273 270 269 266 265 265 265 267 271 271 276 282 278 270 268 272 277 281 282 284 286 286 286 286 285 285 283 280 278 280 281 279 274 270 268 269 269 268 267 266 265 263 262 262 260 259 256 255 254 253 252 253 254 254 255 257 258 260 262 264 265 266 267 268 269 269 270 270 269 269 270 270 269 269 268 268
269 271 272 271 272 268 266 269 267 265 268 269 266 264 268 270 266 267 272 273 274 275 274 273 273 277 281 284 284 286 286 286 287 286 285 284 281 276 275 276 276 274 271 268 267 269 270 270 268 267 265 263 262 263 262 259 256 254 254 254 254 254 256 256 257 258 259 260 262 263 264 265 266 267 268 268 269 270 270 269 269 269 269 269 268 268
269 271 272 269 271 272 272 274 272 267 265 266 266 267 272 273 267 266 271 274 272 270 272 274 275 278 281 282 286 291 291 289 286 284 282 280 277 274 272 271 271 269 268 266 267 270 271 272 271 269 267 264 263 263 262 259 257 256 256 256 256 256 257 257 258 259 260 260 261 263 264 265 266 267 268 268 268 269 269 269 269 269 268 268 268 267
270 270 271 269 269 273 274 272 270 268 264 263 267 269 269 269 267 264 265 269 269 268 271 273 275 277 275 276 284 289 290 291 288 284 282 281 276 274 272 268 267 267 266 266 267 270 273 274 273 271 268 266 265 264 263 261 259 259 259 258 257 258 259 259 259 260 260 261 262 263 264 265 267 267 268 268 268 268 268 269 270 269 268 268 267 267
270 268 269 270 270 272 272 268 265 266 267 267 269 269 267 266 266 264 262 264 266 267 270 272 273 274 273 274 279 282 286 293 293 288 285 283 279 275 271 267 266 265 265 266 268 272 275 276 275 272 269 268 267 266 264 262 261 261 261 260 259 260 261 261 261 261 261 262 263 264 265 266 266 267 267 267 267 268 268 269 270 270 269 268 267 266
270 267 268 270 270 268 268 266 265 266 267 265 264 265 266 266 266 267 264 263 264 267 268 269 269 271 273 273 274 276 281 289 292 290 288 286 282 275 268 264 265 266 267 269 271 275 277 278 278 274 271 271 270 268 266 264 262 262 263 262 260 260 261 262 262 262 262 263 263 264 265 266 266 266 267 267 267 267 268 269 269 269 269 268 267 266
269 268 270 271 269 267 266 266 266 265 266 265 264 263 264 264 264 266 266 264 264 265 266 267 268 268 271 272 271 271 276 282 284 287 288 287 282 277 271 267 267 268 271 272 274 277 278 280 279 276 273 272 271 270 267 265 263 263 264 263 261 261 262 262 262 262 263 263 264 265 266 266 266 266 266 266 266 267 268 268 268 268 269 268 268 267
271 269 271 272 269 268 269 268 267 266 268 269 268 266 266 265 262 262 265 267 267 266 266 267 266 266 269 272 274 274 276 279 278 279 282 281 278 276 273 271 270 271 273 275 277 279 280 280 278 275 274 273 272 270 268 266 264 264 264 264 262 262 262 262 262 262 263 263 264 265 266 266 266 266 266 266 266 266 267 268 268 269 269 269 269 268
272 271 272 273 272 272 272 271 269 268 269 270 270 268 267 266 264 264 266 269 268 266 266 267 267 269 271 273 274 275 276 278 277 277 278 277 277 276 274 273 272 272 274 276 278 280 281 281 277 275 275 275 273 270 268 266 265 264 265 264 263 263 263 263 263 263 263 263 264 265 265 266 266 265 264 264 264 265 266 268 269 269 269 269 269 268
270 269 270 272 274 274 273 272 270 269 269 270 270 269 267 266 267 268 268 268 267 265 266 268 269 271 273 274 275 275 276 276 276 276 276 275 275 274 273 273 272 273 274 276 277 278 280 279 276 275 277 277 274 271 268 266 265 265 265 264 264 265 265 264 263 262 262 262 263 264 264 265 264 263 262 262 263 264 265 267 268 268 268 269 269 268
268 265 265 266 267 268 269 269 270 270 271 271 271 270 268 266 266 268 268 266 266 267 266 266 270 272 274 277 277 276 276 276 275 275 275 274 273 272 273 273 272 272 273 274 275 277 278 278 276 276 278 277 274 270 268 267 266 266 265 264 265 267 267 266 263 262 261 262 263 264 264 264 263 262 262 261 262 263 264 266 267 267 268 268 268 268
266 264 264 263 263 264 266 267 270 271 270 269 269 269 269 267 266 267 267 264 267 270 267 266 270 273 274 276 276 276 277 276 275 275 275 274 274 274 274 275 274 274 274 275 276 277 277 276 275 275 276 274 272 270 269 268 266 266 265 266 266 267 267 266 264 262 261 261 262 263 263 263 263 262 262 262 262 263 263 265 266 267 268 268 268 267
267 265 264 264 263 263 265 266 268 269 268 267 267 266 266 266 266 265 264 265 268 271 269 268 272 273 273 274 275 276 278 278 276 275 273 273 275 276 276 278 278 277 277 278 277 277 277 275 274 273 273 272 270 270 270 269 267 266 267 268 267 266 264 264 264 262 261 261 261 262 263 263 263 263 263 263 262 262 263 265 267 267 268 267 267 267
268 267 266 265 265 264 265 266 266 267 267 267 266 265 265 265 264 263 264 265 266 267 268 271 273 272 272 273 274 276 277 277 276 274 273 275 276 275 277 279 279 278 280 280 278 277 275 273 272 271 270 270 270 270 270 269 268 268 269 268 267 264 263 263 263 262 262 261 262 262 263 263 263 263 263 262 262 262 264 265 267 267 267 267 267 267
267 267 266 266 267 266 266 265 266 266 267 267 266 265 265 264 263 263 264 264 265 266 269 272 272 271 271 272 273 275 275 275 275 275 275 276 275 275 277 278 278 278 280 280 278 275 273 271 270 269 270 270 269 269 269 268 268 269 268 267 265 264 263 262 262 262 262 262 262 263 263 262 262 263 263 262 262 263 265 266 266 266 266 266 266 266
265 265 266 268 269 268 266 266 266 266 267 267 267 266 264 263 262 263 265 266 266 268 270 270 270 271 272 273 274 275 275 275 275 275 275 275 274 275 277 278 277 278 279 278 275 272 272 271 268 268 270 269 268 269 268 267 267 267 266 265 264 263 263 262 262 262 262 262 262 262 261 261 261 262 262 262 263 264 264 265 265 265 265 265 265 265
266 266 268 268 269 268 267 267 267 266 266 265 265 265 264 263 264 265 266 266 266 268 269 269 270 272 274 275 275 275 275 274 274 274 274 275 275 276 277 278 276 276 276 275 271 270 272 271 268 269 269 268 268 268 267 265 266 266 266 265 264 264 263 262 262 262 262 261 261 260 260 260 260 261 262 263 263 264 264 264 265 265 265 265 265 265
268 269 269 268 268 269 268 267 268 268 267 264 262 263 263 265 267 268 268 267 267 268 269 270 272 274 277 277 275 275 274 273 273 273 274 276 276 276 277 277 276 274 274 272 271 271 272 271 269 268 268 268 268 267 265 265 265 266 266 265 265 265 264 262 262 261 261 260 259 259 259 259 260 262 263 263 263 263 263 264 264 265 265 266 266 266
268 269 268 268 270 271 269 269 270 268 265 265 265 264 264 266 268 268 268 269 269 270 271 273 275 276 277 275 274 274 274 273 274 274 275 276 277 276 276 276 275 273 272 272 271 271 272 271 268 267 269 269 268 267 265 264 264 265 265 265 265 264 263 261 260 259 258 258 258 258 259 260 261 262 263 263 263 263 263 264 264 265 265 265 265 264
267 268 268 268 270 271 271 270 268 266 267 270 270 267 266 267 268 269 270 270 271 272 273 274 275 276 275 275 274 275 275 275 276 276 275 276 276 276 276 276 275 274 272 271 270 270 270 269 267 267 270 270 269 268 266 264 264 264 265 264 263 262 260 258 257 256 257 257 258 259 260 261 262 263 263 263 263 263 264 264 264 264 263 263 262 262
265 266 267 267 268 269 269 266 266 270 274 275 273 271 270 271 270 270 271 272 274 275 275 275 275 276 276 276 276 276 276 276 276 275 275 277 278 278 277 276 276 275 273 271 269 268 269 268 266 267 268 269 269 268 266 264 265 265 265 264 263 261 260 258 257 257 257 258 259 260 261 262 263 263 263 263 263 263 263 263 262 262 261 261 261 261
264 264 265 265 265 266 267 266 269 273 274 273 272 271 271 270 270 270 272 274 277 279 279 279 280 280 279 279 279 278 276 276 275 275 276 280 282 282 281 280 279 278 275 273 271 269 268 267 266 266 266 266 267 266 265 265 265 265 265 265 264 263 260 259 258 259 259 260 261 261 262 262 262 262 262 262 262 262 262 262 261 260 260 260 260 261
263 263 263 264 264 265 267 268 270 271 270 271 273 274 272 270 269 270 271 274 279 282 281 282 284 284 283 283 283 281 278 276 274 274 278 282 283 283 283 282 282 280 279 276 274 272 270 269 267 266 265 265 266 266 266 265 264 264 265 265 264 263 261 260 260 260 260 261 261 261 261 261 261 261 261 260 261 261 261 261 260 259 260 261 261 262
266 264 263 263 264 264 265 266 268 269 272 277 280 280 278 275 272 271 270 271 278 282 281 282 283 284 284 285 284 282 279 277 275 275 280 283 282 281 281 281 281 281 279 278 277 275 273 271 269 268 268 267 267 267 266 264 263 264 265 265 265 263 262 260 260 260 261 261 261 260 260 261 261 261 260 259 259 259 259 259 259 260 262 263 263 263
269 266 265 264 264 265 265 265 267 269 273 278 279 280 280 277 272 269 267 271 278 281 281 282 282 281 283 285 284 281 279 278 276 276 279 281 280 279 280 280 280 279 278 278 278 278 277 274 272 271 271 269 267 265 265 264 264 264 265 265 265 264 262 261 260 260 261 260 260 260 261 261 261 260 259 257 257 258 258 259 260 261 262 263 263 263
270 268 267 267 267 267 266 266 267 268 271 275 278 281 282 278 269 265 269 275 278 278 278 281 281 280 282 283 282 281 279 279 278 277 278 279 279 279 279 279 278 277 276 276 277 277 277 275 273 273 272 271 268 266 265 264 264 265 265 265 265 264 262 261 260 260 260 260 260 260 260 260 260 259 258 257 257 258 259 260 261 261 261 261 261 262
272 271 269 268 269 270 268 268 269 267 269 276 282 284 284 278 270 269 274 276 276 276 276 277 278 279 279 280 281 280 279 280 280 279 279 279 278 277 277 277 277 276 275 275 275 276 275 274 274 273 272 270 267 265 265 264 264 265 265 265 265 264 263 262 261 260 260 261 260 259 259 258 258 257 257 258 258 258 259 260 260 259 259 259 260 261
272 272 271 270 270 270 268 266 265 264 267 277 283 283 282 279 274 274 274 273 274 276 277 276 277 279 279 279 280 279 279 280 281 281 281 279 278 277 276 275 274 273 272 272 273 274 273 272 272 271 270 268 265 264 263 262 262 264 265 264 264 264 264 263 262 262 261 260 259 258 257 256 256 255 256 258 258 258 258 259 258 258 258 259 259 261
269 269 270 270 269 268 265 263 264 265 269 275 276 275 276 278 275 273 273 273 275 278 279 279 279 280 281 281 281 281 281 282 283 283 282 280 279 278 277 276 274 272 271 270 271 272 272 270 269 269 269 267 265 264 262 261 262 263 264 264 265 264 264 264 264 262 261 260 259 257 256 255 255 255 256 257 258 257 256 256 255 256 258 258 260 262
268 267 268 269 268 266 265 266 268 270 271 273 273 273 274 273 271 270 272 274 275 278 280 280 280 282 283 283 283 282 283 283 284 283 281 279 279 279 278 277 274 273 272 271 271 272 272 270 269 269 268 267 265 263 262 261 261 262 264 265 264 264 264 265 264 263 261 259 259 258 257 257 256 255 256 256 257 257 255 253 254 255 257 258 260 262
269 269 269 268 268 268 267 268 270 272 273 274 276 275 273 271 270 271 274 275 276 278 279 280 280 281 282 282 282 281 281 282 282 281 279 278 278 278 277 276 275 274 274 274 273 273 272 271 270 269 268 268 266 264 263 262 261 262 264 264 263 263 264 264 263 263 262 260 260 259 258 258 257 256 256 256 256 256 254 252 253 255 256 258 260 262
270 271 270 269 270 271 270 269 271 273 274 275 275 272 272 272 273 274 275 277 278 279 279 279 280 280 280 280 279 279 279 279 279 278 277 277 277 278 278 277 276 275 274 274 274 273 273 273 272 270 269 268 267 265 264 264 264 264 265 264 263 263 263 261 261 262 262 261 261 261 259 258 257 256 256 256 256 256 254 253 254 255 256 257 259 262
273 273 272 271 271 272 272 273 273 273 273 273 271 269 272 275 276 276 276 277 277 278 278 278 279 278 278 277 277 277 277 277 276 276 276 276 277 278 278 278 277 276 274 274 274 273 273 273 272 270 269 268 267 266 266 265 266 266 266 266 265 263 262 260 260 261 261 261 261 261 260 259 258 257 256 256 257 256 255 255 255 255 256 257 258 261
276 275 274 273 273 273 274 275 277 276 274 272 270 270 273 275 275 275 276 277 278 278 278 278 278 277 277 277 277 276 275 275 276 276 276 275 276 277 277 277 276 275 275 275 275 275 275 273 272 270 269 268 267 266 265 265 266 266 265 265 265 263 262 261 261 261 261 261 261 261 261 260 259 258 257 257 257 257 257 256 256 256 257 258 259 261
277 276 276 276 276 276 276 276 277 278 276 274 272 273 275 276 275 275 276 277 278 278 278 278 278 278 278 278 277 276 275 275 276 277 276 276 275 275 275 276 276 275 275 275 276 276 276 274 273 272 270 269 268 267 266 266 266 266 265 265 265 264 263 263 263 263 262 262 262 263 263 262 260 258 258 258 258 257 257 256 255 256 258 260 261 262
276 276 277 277 276 277 278 277 276 277 278 277 276 277 278 278 277 277 277 277 276 276 276 276 276 277 277 277 277 277 276 276 277 277 276 276 275 274 274 274 275 275 275 275 275 275 274 273 273 272 271 270 270 269 267 267 267 267 266 265 265 264 264 263 263 264 263 264 264 264 264 264 262 259 258 258 258 257 257 255 255 257 259 260 261 261